Home   Weather   Riverview   Past weeks

Flag for Canada Past Weather in Riverview, New Brunswick, Canada — Yesterday and Last 2 Weeks

41 °F

Light rain. Mostly cloudy.

Feels Like: 35 °F
Forecast: N/A
Wind: 10 mph from West

Location: Moncton

Current Time: Oct 25, 2016 at 6:06:40 PM

Latest Report: Oct 25, 2016 at 5:00 PM

Visibility: 15 mi

Pressure: 29.83 "Hg

Humidity: 81%

Dew Point: 36 °F

Location of RiverviewLocation

Past Weather in Riverview — Graph


Riverview Temperature Yesterday

Maximum temperature yesterday: 46 °F (at 11:00 AM)
Minimum temperature yesterday: 39 °F (at 3:00 AM)
Average temperature yesterday: 43 °F

High & Low Weather Summary for the Past Weeks

High70 °F (Oct 19, 2:00 PM)100% (Oct 12, 6:00 AM)30.44 "Hg (Oct 12, 6:00 AM)
Low32 °F (Oct 15, 7:00 AM)44% (Oct 14, 4:00 PM)29.12 "Hg (Oct 22, 6:00 PM)
Average50 °F77%29.93 "Hg
* Reported Oct 10 5:00 PM — Oct 25 5:00 PM, Riverview, Weather by CustomWeather, © 2016

Note: Actual official high and low records may vary slightly from our data, if they occured in-between our weather recording intervals... More about our weather records


Riverview Weather History for the Previous 24 Hours

Scroll right to see more
Time TempWeatherWind HumidityBarometerVisibility
5:00 PM
Tue, Oct 25
41 °FLight rain. Mostly cloudy.10 mph81%29.83 "Hg15 mi
4:00 PM41 °FLight rain. Mostly cloudy.8 mph87%29.82 "Hg15 mi
3:00 PM41 °FLight rain. Overcast.14 mph81%29.80 "Hg10 mi
2:00 PM41 °FLight rain. Overcast.13 mph81%29.79 "Hg15 mi
1:00 PM39 °FSprinkles. Overcast.10 mph87%29.78 "Hg15 mi
12:00 PM39 °FSprinkles. Overcast.14 mph81%29.78 "Hg15 mi
11:00 AM39 °FPartly sunny.13 mph75%29.77 "Hg15 mi
10:00 AM39 °FBroken clouds.12 mph75%29.76 "Hg15 mi
9:00 AM36 °FPartly sunny.16 mph87%29.76 "Hg15 mi
8:00 AM34 °FBroken clouds.10 mph87%29.74 "Hg15 mi
7:00 AM34 °FOvercast.12 mph87%29.72 "Hg15 mi
6:00 AM34 °FLight snow. Partly cloudy.12 mph87%29.71 "Hg15 mi
5:00 AM36 °FLight snow. Mostly cloudy.14 mph81%29.70 "Hg15 mi
4:00 AM36 °FPassing clouds.14 mph75%29.69 "Hg15 mi
3:00 AM36 °FPassing clouds.10 mph75%29.69 "Hg15 mi
2:00 AM37 °FPassing clouds.13 mph75%29.69 "Hg15 mi
1:00 AM37 °FPassing clouds.15 mph75%29.68 "Hg15 mi
12:00 AM37 °FPassing clouds.15 mph70%29.67 "Hg15 mi
11:00 PM
Mon, Oct 24
39 °FPassing clouds.12 mph65%29.67 "Hg15 mi
10:00 PM41 °FPassing clouds.14 mph61%29.67 "Hg15 mi
9:00 PM41 °FPassing clouds.12 mph66%29.64 "Hg15 mi
8:00 PM41 °FOvercast.10 mph66%29.63 "Hg15 mi
7:00 PM41 °FPassing clouds.10 mph66%29.61 "Hg15 mi
6:00 PM43 °FPartly sunny.15 mph61%29.59 "Hg15 mi
Weather by CustomWeather, © 2016

See weather overviewHow to use our weather pages